Flag for Switzerland Weather past 2 weeks in La-Chaux-de-Fonds, Neuchâtel, Switzerland

Now
27 °F

Passing clouds.


Feels Like: 23 °F
Forecast: 29 / 40 °F
Wind: 3 mph from Northeast

Location: Les Eplatures

Current Time: Mar 6, 2015 at 1:19:51 AM

Latest Report: Mar 6, 2015 at 12:50 AM


Visibility: N/A

Pressure: 30.48 "Hg

Humidity: 80%

Dew point: 21 °F

Location of La-Chaux-de-FondsLocation

Historic Weather in La-Chaux-de-Fonds — Graph

°F

La-Chaux-de-Fonds temperature yesterday

Maximum temperature yesterday: 34 °F (at 1:20 PM)
Minimum temperature yesterday: 27 °F (at 3:50 AM)
Average temperature yesterday: 29 °F

Past Weeks' High & Low Weather Summary

 TemperatureHumidityPressure
High45 °F (Feb 19, 12:20 PM)100% (Feb 21, 12:50 PM)30.51 "Hg (Feb 21, 12:50 PM)
Low12 °F (Feb 22, 11:20 PM)31% (Feb 20, 4:20 PM)29.50 "Hg (Feb 21, 8:20 AM)
Average32 °F82%29.98 "Hg
* Reported Feb 19 12:20 AM — Mar 6 12:20 AM, La-Chaux-de-Fonds, Weather by CustomWeather, © 2015

Note: Actual official high and low records may vary slightly from our data, if they occured in-between our weather recording intervals... More about our weather records

Advertising

La-Chaux-de-Fonds weather history for previous 24 hours

 ConditionsComfort  
Time TempWeatherWind HumidityBarometerVisibility
12:20 AM
Fri, Mar 6
27 °FPassing clouds.7 mph80%30.51 "HgN/A
11:50 PM
Thu, Mar 5
27 °FPassing clouds.5 mph80%30.51 "HgN/A
11:20 PM27 °FPassing clouds.6 mph80%30.51 "HgN/A
10:50 PM27 °FPassing clouds.5 mph80%30.51 "HgN/A
10:20 PM28 °FPassing clouds.8 mph74%30.51 "HgN/A
9:20 PM28 °FPassing clouds.6 mph74%30.48 "HgN/A
8:50 PM28 °FClear.6 mph74%30.48 "Hg10 mi
8:20 PM28 °FChilly.8 mph74%30.51 "HgN/A
7:50 PM28 °FPassing clouds.7 mph74%30.51 "HgN/A
7:20 PM28 °FPassing clouds.3 mph74%30.51 "HgN/A
6:50 PM28 °FChilly.2 mph69%30.48 "HgN/A
6:20 PM30 °FPassing clouds.6 mph69%30.48 "HgN/A
5:50 PM32 °FPassing clouds.7 mph60%30.48 "HgN/A
5:20 PM32 °FPassing clouds.10 mph60%30.45 "HgN/A
4:50 PM32 °FScattered clouds.12 mph60%30.48 "HgN/A
4:20 PM34 °FScattered clouds.10 mph56%30.45 "HgN/A
3:50 PM34 °FScattered clouds.9 mph56%30.48 "HgN/A
3:20 PM34 °FScattered clouds.10 mph56%30.48 "HgN/A
2:50 PM34 °FScattered clouds.14 mph56%30.48 "HgN/A
2:20 PM34 °FScattered clouds.13 mph56%30.48 "HgN/A
1:50 PM34 °FScattered clouds.14 mph60%30.48 "HgN/A
1:20 PM34 °FPartly sunny.15 mph56%30.48 "HgN/A
12:50 PM32 °FPartly sunny.14 mph60%30.48 "HgN/A
12:20 PM32 °FPartly sunny.12 mph60%30.48 "HgN/A
11:50 AM30 °FBroken clouds.15 mph69%30.48 "HgN/A
11:20 AM30 °FBroken clouds.13 mph75%30.48 "HgN/A
10:50 AM28 °FBroken clouds.10 mph80%30.48 "HgN/A
10:20 AM28 °FBroken clouds.13 mph80%30.48 "HgN/A
9:50 AM28 °FBroken clouds.14 mph80%30.48 "HgN/A
9:20 AM27 °FBroken clouds.14 mph86%30.45 "HgN/A
8:50 AM27 °FLight snow. Broken clouds.12 mph86%30.45 "Hg6 mi
8:20 AM28 °FLight snow. Broken clouds.13 mph80%30.45 "HgN/A
7:50 AM27 °FLight snow. Passing clouds.13 mph86%30.45 "Hg4 mi
7:20 AM27 °FLight snow. Partly cloudy.10 mph93%30.45 "HgN/A
6:50 AM27 °FSnow flurries. Partly cloudy.9 mph93%30.42 "HgN/A
6:20 AM27 °FSnow flurries. Partly cloudy.8 mph86%30.42 "HgN/A
5:50 AM27 °FPassing clouds.9 mph86%30.42 "HgN/A
5:20 AM27 °FSnow flurries. Mostly cloudy.9 mph93%30.42 "HgN/A
4:20 AM27 °FOvercast.9 mph93%30.42 "HgN/A
3:50 AM27 °FPassing clouds.8 mph93%30.42 "HgN/A
2:50 AM28 °FLow clouds.7 mph86%30.42 "HgN/A
2:20 AM28 °FPassing clouds.9 mph86%30.42 "HgN/A
1:50 AM28 °FLight snow. Partly cloudy.9 mph86%30.42 "HgN/A
1:20 AM28 °FLight snow. Low clouds.6 mph93%30.39 "HgN/A
Weather by CustomWeather, © 2015

See weather overviewHow to use our weather pages